Location: Gro�sch�nbrunn
(49.5760°N, 11.8868°E)
Time: 12:28:55
(UTC+00:00)

Lacrosse 5 rocket - Visible Passes

Search period start: 16 January 2021 00:00
Search period end: 26 January 2021 00:00
Orbit: 460 x 635 km, 57.0° (Epoch: 15 January)

Date Brightness Start Highest point End Pass type
(mag) Time Alt. Az. Time Alt. Az. Time Alt. Az.
16 Jan 3.4 04:04:26 21° NE 04:04:26 21° NE 04:06:16 10° ENE visible
16 Jan 1.8 05:40:04 18° NW 05:42:43 47° NNE 05:46:21 10° E visible
17 Jan 3.5 03:58:44 21° NE 03:58:44 21° NE 04:00:30 10° ENE visible
17 Jan 1.5 05:34:22 20° NW 05:36:51 56° NNE 05:40:31 10° ESE visible
18 Jan 3.5 03:53:03 20° NE 03:53:03 20° NE 03:54:43 10° ENE visible
18 Jan 1.3 05:28:41 23° NW 05:30:57 68° NNE 05:34:40 10° ESE visible
19 Jan 3.6 03:47:24 20° ENE 03:47:24 20° ENE 03:48:57 10° ENE visible
19 Jan 1.1 05:23:02 27° NW 05:25:02 83° NNE 05:28:46 10° ESE visible
20 Jan 3.8 03:41:48 19° ENE 03:41:48 19° ENE 03:43:10 10° E visible
20 Jan 1.0 05:17:26 32° WNW 05:19:06 80° SW 05:22:49 10° SE visible
21 Jan 3.9 03:36:15 18° ENE 03:36:15 18° ENE 03:37:24 10° E visible
21 Jan 1.1 05:11:53 38° WNW 05:13:09 63° SW 05:16:50 10° SE visible
22 Jan 4.1 03:30:46 16° E 03:30:46 16° E 03:31:37 10° E visible
22 Jan 1.4 05:06:23 42° W 05:07:10 49° SW 05:10:47 10° SSE visible
23 Jan 4.3 03:25:19 13° E 03:25:19 13° E 03:25:48 10° E visible
23 Jan 1.7 05:00:58 38° SW 05:01:10 38° SW 05:04:40 10° SSE visible
24 Jan 2.2 04:55:38 29° SSW 04:55:38 29° SSW 04:58:27 10° SSE visible
25 Jan 2.9 04:50:23 20° SSW 04:50:23 20° SSW 04:52:08 10° S visible
